F0657D65 Weather Reports


time (UTC)temp
C
wind
direction
speed
KPH
gust
KPH
rain 1hr
cm
rain 24hr
cm
rain mn
cm
humidity
%
barometer
mb
20260510063038 11 88 1.6 6.4 0.00 0.00 0.00 87 1012.0
20260510061528 10 34 1.6 4.8 0.00 0.00 0.00 86 1011.9
20260510060025 10 42 1.6 3.2 0.00 0.00 0.00 86 1012.1
20260510054521 10 73 1.6 6.4 0.00 0.00 0.00 86 1012.2
20260510053018 10 90 0.0 3.2 0.00 0.00 0.00 86 1012.3
20260510051517 10 65 0.0 4.8 0.00 0.00 0.00 87 1012.4
20260510050015 10 73 0.0 3.2 0.00 0.00 0.00 87 1012.2
20260510044515 10 80 0.0 3.2 0.00 0.00 0.00 87 1012.1
20260510043012 10 123 0.0 4.8 0.00 0.00 0.00 88 1012.2
20260510041511 10 111 0.0 3.2 0.00 0.00 0.00 88 1012.3
20260510040015 10 65 0.0 1.6 0.00 0.00 0.00 88 1012.2
20260510034510 10 57 0.0 4.8 0.00 0.00 0.00 88 1012.4
20260510033009 10 75 0.0 3.2 0.00 0.00 0.00 88 1012.4
20260510031515 10 51 0.0 4.8 0.00 0.00 0.00 88 1012.4
20260510030010 11 5 0.0 3.2 0.00 0.00 0.00 87 1012.6
20260510024504 11 53 0.0 4.8 0.00 0.00 0.00 87 1012.7
20260510023003 11 69 0.0 4.8 0.00 0.00 0.00 87 1012.9
20260510021502 11 61 0.0 3.2 0.00 0.00 0.00 86 1012.9
20260510020100 11 70 0.0 1.6 0.00 0.00 0.00 86 1013.0
20260510014618 11 70 0.0 3.2 0.00 0.00 0.00 86 1013.1
20260510013103 11 38 0.0 3.2 0.00 0.00 0.00 86 1013.3
20260510011556 11 71 0.0 1.6 0.00 0.00 0.00 85 1013.3
20260510010054 11 71 0.0 1.6 0.00 0.00 0.00 85 1013.6
20260510004552 11 53 0.0 1.6 0.00 0.00 0.00 85 1013.7
20260510003052 11 53 0.0 3.2 0.00 0.00 0.00 85 1013.9
20260510001552 11 71 0.0 3.2 0.00 0.00 0.00 84 1014.0
20260510000051 12 71 0.0 1.6 0.00 0.00 0.00 84 1014.2
20260509234547 12 71 0.0 3.2 0.00 0.00 0.00 83 1014.4
20260509233050 12 71 0.0 3.2 0.00 0.00 0.00 83 1014.4
20260509231542 12 71 0.0 3.2 0.00 0.00 0.00 82 1014.5
20260509230040 12 102 0.0 3.2 0.00 0.00 0.00 81 1014.5
20260509224549 12 84 0.0 1.6 0.00 0.00 0.00 82 1014.4
20260509223038 13 67 0.0 1.6 0.00 0.00 0.00 82 1014.4
20260509221539 13 67 0.0 1.6 0.00 0.00 0.00 82 1014.4
20260509220034 13 67 0.0 1.6 0.00 0.00 0.00 82 1014.4
20260509214533 13 67 0.0 1.6 0.00 0.00 0.00 82 1014.4
20260509213033 13 63 0.0 1.6 0.00 0.00 0.00 82 1014.4
20260509211532 13 59 0.0 1.6 0.00 0.00 0.00 81 1014.4
20260509210033 13 59 0.0 0.0 0.00 0.00 0.00 82 1014.4
20260509204531 14 59 0.0 0.0 0.00 0.00 0.00 82 1014.4
20260509203031 14 59 0.0 0.0 0.00 0.00 0.00 81 1014.4
20260509201534 15 59 0.0 0.0 0.00 0.00 0.00 80 1014.3
20260509200029 15 59 0.0 0.0 0.00 0.00 0.00 79 1014.1
20260509194529 15 59 0.0 0.0 0.00 0.00 0.00 78 1014.1
20260509193028 16 59 0.0 1.6 0.00 0.00 0.00 77 1013.6
20260509191528 16 59 0.0 1.6 0.00 0.00 0.00 76 1013.5
20260509190027 17 59 0.0 1.6 0.00 0.00 0.00 74 1013.5
20260509184527 17 59 0.0 0.0 0.00 0.00 0.00 74 1013.5
20260509183027 18 59 0.0 1.6 0.00 0.00 0.00 71 1013.4
20260509181526 18 59 0.0 3.2 0.00 0.00 0.00 69 1013.3
20260509180026 19 94 0.0 4.8 0.00 0.00 0.00 68 1013.4
20260509174526 20 70 0.0 6.4 0.00 0.00 0.00 67 1013.4
20260509173025 20 77 1.6 9.7 0.00 0.00 0.00 64 1013.2
20260509171534 21 84 0.0 4.8 0.00 0.00 0.00 63 1013.4
20260509170029 21 82 1.6 4.8 0.00 0.00 0.00 63 1013.3
20260509164522 21 75 1.6 11.3 0.00 0.00 0.00 66 1013.7
20260509163025 20 5 1.6 4.8 0.00 0.00 0.00 66 1013.7
20260509161523 20 79 0.0 6.4 0.00 0.00 0.00 65 1013.5
20260509160019 20 74 0.0 3.2 0.00 0.00 0.00 66 1013.9
20260509154519 21 85 0.0 4.8 0.00 0.00 0.00 63 1013.9
20260509153016 22 45 1.6 4.8 0.00 0.00 0.00 59 1014.0
20260509151516 22 37 1.6 6.4 0.00 0.00 0.00 63 1014.1
20260509150023 22 88 1.6 8.0 0.00 0.00 0.00 67 1014.3
20260509144523 22 96 1.6 9.7 0.00 0.00 0.00 60 1014.2
20260509143013 22 78 1.6 9.7 0.00 0.00 0.00 60 1014.2
20260509141519 22 91 3.2 8.0 0.00 0.00 0.00 60 1014.2
20260509140011 22 36 1.6 6.4 0.00 0.00 0.00 66 1014.2
20260509134512 22 78 1.6 9.7 0.00 0.00 0.00 67 1014.2
20260509133010 21 104 1.6 9.7 0.00 0.00 0.00 64 1014.3
20260509131509 21 74 3.2 14.5 0.00 0.00 0.00 62 1014.6
20260509130008 22 91 1.6 14.5 0.00 0.00 0.00 55 1014.8
20260509124508 22 38 1.6 12.9 0.00 0.00 0.00 63 1014.7
20260509123004 22 75 6.4 14.5 0.00 0.00 0.00 60 1014.8
20260509121501 22 330 3.2 16.1 0.00 0.00 0.00 62 1015.0
20260509120058 21 30 1.6 11.3 0.00 0.00 0.00 65 1015.0
20260509114558 21 126 1.6 11.3 0.00 0.00 0.00 63 1015.2
20260509113058 21 76 3.2 8.0 0.00 0.00 0.00 61 1015.3
20260509111553 21 103 1.6 9.7 0.00 0.00 0.00 68 1015.4
20260509110051 21 98 1.6 12.9 0.00 0.00 0.00 72 1015.6
20260509104547 20 82 3.2 9.7 0.00 0.00 0.00 75 1015.8
20260509103047 20 107 1.6 9.7 0.00 0.00 0.00 72 1015.8
20260509101550 19 84 1.6 11.3 0.00 0.00 0.00 73 1015.9
20260509100040 18 127 1.6 6.4 0.00 0.00 0.00 71 1016.1
20260509094539 18 33 1.6 9.7 0.00 0.00 0.00 71 1016.0
20260509093037 18 92 0.0 6.4 0.00 0.00 0.00 74 1016.2
20260509091534 18 63 0.0 3.2 0.00 0.00 0.00 73 1016.3
20260509090032 18 35 1.6 11.3 0.00 0.00 0.00 73 1016.3
20260509084527 17 69 0.0 6.4 0.00 0.00 0.00 76 1016.3
20260509083024 16 66 0.0 11.3 0.00 0.00 0.00 77 1016.3
20260509081524 16 113 1.6 9.7 0.00 0.00 0.00 79 1016.4
20260509080021 15 75 1.6 8.0 0.00 0.00 0.00 81 1016.5
20260509074515 15 333 1.6 6.4 0.00 0.00 0.00 82 1016.5
20260509073011 13 78 0.0 6.4 0.00 0.00 0.00 84 1016.5
20260509071506 12 35 0.0 3.2 0.00 0.00 0.00 90 1016.6
20260509070003 11 20 0.0 0.0 0.00 0.00 0.00 91 1016.5
20260509064617 11 20 0.0 0.0 0.00 0.00 0.00 90 1016.6